Location: Newark
(0.5300°S, 127.4800°E)
Time: 18:23:50
(UTC+00:00)

A-11 Canister half - Pass Details

Date: 20 September 2019
Orbit: 1514 x 1686 km, 47.2° (Epoch: 23 October)

Event Time Altitude Azimuth Distance (km) Brightness Sun altitude
Rises 11:44:27 0° 299° (WNW) 4,759 12.4 -35.2°
Reaches altitude 10° 11:47:51 10° 291° (WNW) 3,801 11.7 -36.1°
Maximum altitude 11:56:25 35° 229° (SW) 2,407 10.2 -38.2°
Enters shadow 12:02:18 20° 178° (S) 3,179 10.5 -39.7°
Drops below altitude 10° 12:05:17 10° 166° (SSE) 3,921 - -40.4°
Sets 12:08:54 0° 157° (SSE) 4,925 - -41.3°
